| time (UTC) | temp F | wind direction | speed MPH | gust MPH | rain 1hr in | rain 24hr in | rain mn in | humidity % | barometer mb |
| 20260901154803 | 86 | 60 | 3.0 | 6.0 | 0.00 | 0.00 | 0.00 | 45 | 1017.4 |
| 20260901154617 | 86 | 63 | 3.0 | 4.0 | 0.00 | 0.00 | 0.00 | 46 | 1017.5 |
| 20260901154003 | 86 | 68 | 3.0 | 6.0 | 0.00 | 0.00 | 0.00 | 43 | 1017.3 |
| 20260901153603 | 87 | 66 | 2.0 | 6.0 | 0.00 | 0.00 | 0.00 | 43 | 1017.4 |
| 20260901153203 | 86 | 62 | 2.0 | 4.0 | 0.00 | 0.00 | 0.00 | 44 | 1017.4 |
| 20260901153014 | 86 | 58 | 2.0 | 4.0 | 0.00 | 0.00 | 0.00 | 44 | 1017.6 |
| 20260901152403 | 87 | 68 | 3.0 | 7.0 | 0.00 | 0.00 | 0.00 | 43 | 1017.4 |
| 20260901152003 | 87 | 79 | 3.0 | 7.0 | 0.00 | 0.00 | 0.00 | 44 | 1017.6 |
| 20260901151603 | 87 | 81 | 2.0 | 4.0 | 0.00 | 0.00 | 0.00 | 44 | 1017.6 |
| 20260901151203 | 87 | 82 | 3.0 | 7.0 | 0.00 | 0.00 | 0.00 | 43 | 1017.5 |
| 20260901150803 | 87 | 67 | 3.0 | 7.0 | 0.00 | 0.00 | 0.00 | 43 | 1017.4 |
| 20260901150403 | 87 | 81 | 3.0 | 7.0 | 0.00 | 0.00 | 0.00 | 43 | 1017.6 |
| 20260901150003 | 87 | 92 | 3.0 | 6.0 | 0.00 | 0.00 | 0.00 | 44 | 1017.5 |
| 20260901145603 | 87 | 98 | 3.0 | 8.0 | 0.00 | 0.00 | 0.00 | 44 | 1017.7 |
| 20260901145203 | 87 | 96 | 3.0 | 8.0 | 0.00 | 0.00 | 0.00 | 44 | 1017.7 |
| 20260901144803 | 87 | 76 | 3.0 | 7.0 | 0.00 | 0.00 | 0.00 | 44 | 1017.6 |
| 20260901144403 | 87 | 73 | 3.0 | 7.0 | 0.00 | 0.00 | 0.00 | 44 | 1017.6 |
| 20260901144003 | 87 | 75 | 4.0 | 7.0 | 0.00 | 0.00 | 0.00 | 45 | 1017.7 |
| 20260901143603 | 87 | 65 | 4.0 | 10.0 | 0.00 | 0.00 | 0.00 | 45 | 1017.8 |
| 20260901143203 | 86 | 55 | 4.0 | 10.0 | 0.00 | 0.00 | 0.00 | 46 | 1017.8 |
| 20260901142803 | 86 | 64 | 4.0 | 7.0 | 0.00 | 0.00 | 0.00 | 47 | 1017.9 |
| 20260901142403 | 87 | 79 | 4.0 | 8.0 | 0.00 | 0.00 | 0.00 | 46 | 1017.9 |
| 20260901142214 | 87 | 85 | 4.0 | 8.0 | 0.00 | 0.00 | 0.00 | 46 | 1017.9 |
| 20260901141603 | 87 | 84 | 4.0 | 8.0 | 0.00 | 0.00 | 0.00 | 46 | 1017.9 |
| 20260901141418 | 87 | 82 | 4.0 | 7.0 | 0.00 | 0.00 | 0.00 | 47 | 1018.0 |
| 20260901140803 | 87 | 70 | 4.0 | 10.0 | 0.00 | 0.00 | 0.00 | 48 | 1017.8 |
| 20260901140403 | 87 | 76 | 5.0 | 10.0 | 0.00 | 0.00 | 0.00 | 47 | 1017.9 |
| 20260901140003 | 87 | 87 | 4.0 | 7.0 | 0.00 | 0.00 | 0.00 | 47 | 1018.0 |
| 20260901135815 | 87 | 90 | 4.0 | 8.0 | 0.00 | 0.00 | 0.00 | 48 | 1018.0 |
| 20260901135203 | 86 | 91 | 4.0 | 10.0 | 0.00 | 0.00 | 0.00 | 48 | 1018.0 |
| 20260901134803 | 87 | 84 | 4.0 | 10.0 | 0.00 | 0.00 | 0.00 | 47 | 1018.1 |
| 20260901134403 | 87 | 81 | 4.0 | 10.0 | 0.00 | 0.00 | 0.00 | 48 | 1018.1 |
| 20260901134003 | 87 | 84 | 5.0 | 10.0 | 0.00 | 0.00 | 0.00 | 49 | 1018.0 |
| 20260901133603 | 87 | 80 | 4.0 | 10.0 | 0.00 | 0.00 | 0.00 | 50 | 1018.1 |
| 20260901133203 | 87 | 68 | 5.0 | 10.0 | 0.00 | 0.00 | 0.00 | 50 | 1018.2 |
| 20260901132803 | 86 | 67 | 5.0 | 10.0 | 0.00 | 0.00 | 0.00 | 48 | 1018.0 |
| 20260901132615 | 87 | 71 | 5.0 | 10.0 | 0.00 | 0.00 | 0.00 | 49 | 1018.1 |
| 20260901132214 | 87 | 81 | 5.0 | 8.0 | 0.00 | 0.00 | 0.00 | 49 | 1018.1 |
| 20260901131603 | 86 | 79 | 5.0 | 11.0 | 0.00 | 0.00 | 0.00 | 50 | 1018.4 |
| 20260901131203 | 87 | 78 | 5.0 | 11.0 | 0.00 | 0.00 | 0.00 | 52 | 1018.2 |
| 20260901131017 | 87 | 79 | 5.0 | 11.0 | 0.00 | 0.00 | 0.00 | 50 | 1018.2 |
| 20260901130617 | 87 | 75 | 5.0 | 10.0 | 0.00 | 0.00 | 0.00 | 50 | 1018.3 |
| 20260901130003 | 87 | 63 | 5.0 | 10.0 | 0.00 | 0.00 | 0.00 | 50 | 1018.2 |
| 20260901125603 | 87 | 66 | 5.0 | 10.0 | 0.00 | 0.00 | 0.00 | 50 | 1018.3 |
| 20260901125203 | 87 | 67 | 6.0 | 13.0 | 0.00 | 0.00 | 0.00 | 48 | 1018.2 |
| 20260901124803 | 86 | 70 | 5.0 | 13.0 | 0.00 | 0.00 | 0.00 | 49 | 1018.3 |
| 20260901124403 | 87 | 69 | 5.0 | 13.0 | 0.00 | 0.00 | 0.00 | 49 | 1018.2 |
| 20260901124213 | 87 | 71 | 4.0 | 10.0 | 0.00 | 0.00 | 0.00 | 50 | 1018.4 |
| 20260901123603 | 86 | 78 | 5.0 | 10.0 | 0.00 | 0.00 | 0.00 | 50 | 1018.4 |
| 20260901123203 | 86 | 81 | 6.0 | 10.0 | 0.00 | 0.00 | 0.00 | 49 | 1018.4 |
| 20260901123016 | 86 | 75 | 6.0 | 10.0 | 0.00 | 0.00 | 0.00 | 49 | 1018.5 |
| 20260901122403 | 86 | 66 | 6.0 | 13.0 | 0.00 | 0.00 | 0.00 | 50 | 1018.5 |
| 20260901122003 | 86 | 69 | 5.0 | 13.0 | 0.00 | 0.00 | 0.00 | 50 | 1018.7 |
| 20260901121814 | 87 | 70 | 5.0 | 11.0 | 0.00 | 0.00 | 0.00 | 50 | 1018.6 |
| 20260901121203 | 86 | 66 | 5.0 | 10.0 | 0.00 | 0.00 | 0.00 | 49 | 1018.6 |
| 20260901120803 | 86 | 74 | 5.0 | 10.0 | 0.00 | 0.00 | 0.00 | 49 | 1018.5 |
| 20260901120618 | 86 | 70 | 5.0 | 8.0 | 0.00 | 0.00 | 0.00 | 53 | 1018.7 |
| 20260901120003 | 86 | 65 | 5.0 | 10.0 | 0.00 | 0.00 | 0.00 | 50 | 1018.8 |
| 20260901115603 | 86 | 60 | 5.0 | 10.0 | 0.00 | 0.00 | 0.00 | 50 | 1018.6 |
| 20260901115203 | 86 | 58 | 5.0 | 8.0 | 0.00 | 0.00 | 0.00 | 50 | 1018.6 |
| 20260901114803 | 86 | 63 | 5.0 | 10.0 | 0.00 | 0.00 | 0.00 | 50 | 1018.7 |
| 20260901114403 | 86 | 68 | 5.0 | 10.0 | 0.00 | 0.00 | 0.00 | 52 | 1018.6 |
| 20260901114003 | 86 | 81 | 5.0 | 10.0 | 0.00 | 0.00 | 0.00 | 50 | 1018.7 |
| 20260901113603 | 86 | 86 | 5.0 | 8.0 | 0.00 | 0.00 | 0.00 | 51 | 1018.6 |
| 20260901113203 | 86 | 90 | 5.0 | 15.0 | 0.00 | 0.00 | 0.00 | 53 | 1018.7 |
| 20260901113017 | 85 | 83 | 6.0 | 15.0 | 0.00 | 0.00 | 0.00 | 54 | 1018.6 |
| 20260901112403 | 85 | 58 | 5.0 | 10.0 | 0.00 | 0.00 | 0.00 | 53 | 1018.7 |
| 20260901112003 | 85 | 63 | 6.0 | 13.0 | 0.00 | 0.00 | 0.00 | 56 | 1018.9 |
| 20260901111603 | 85 | 68 | 6.0 | 13.0 | 0.00 | 0.00 | 0.00 | 56 | 1018.6 |
| 20260901111203 | 85 | 64 | 7.0 | 16.0 | 0.00 | 0.00 | 0.00 | 56 | 1018.5 |
| 20260901110803 | 85 | 58 | 7.0 | 16.0 | 0.00 | 0.00 | 0.00 | 56 | 1018.6 |
| 20260901110613 | 85 | 58 | 7.0 | 16.0 | 0.00 | 0.00 | 0.00 | 57 | 1018.7 |
| 20260901110003 | 85 | 62 | 6.0 | 11.0 | 0.00 | 0.00 | 0.00 | 58 | 1018.6 |
| 20260901105603 | 85 | 61 | 6.0 | 10.0 | 0.00 | 0.00 | 0.00 | 57 | 1018.8 |
| 20260901105203 | 85 | 52 | 6.0 | 15.0 | 0.00 | 0.00 | 0.00 | 58 | 1018.8 |
| 20260901104803 | 85 | 48 | 6.0 | 15.0 | 0.00 | 0.00 | 0.00 | 60 | 1018.6 |
| 20260901104403 | 85 | 54 | 6.0 | 13.0 | 0.00 | 0.00 | 0.00 | 59 | 1018.6 |
| 20260901104003 | 85 | 55 | 6.0 | 13.0 | 0.00 | 0.00 | 0.00 | 59 | 1018.7 |
| 20260901103603 | 85 | 45 | 6.0 | 11.0 | 0.00 | 0.00 | 0.00 | 62 | 1018.6 |
| 20260901103203 | 84 | 44 | 7.0 | 14.0 | 0.00 | 0.00 | 0.00 | 62 | 1018.7 |
| 20260901102803 | 85 | 49 | 6.0 | 14.0 | 0.00 | 0.00 | 0.00 | 60 | 1018.6 |
| 20260901102403 | 85 | 55 | 6.0 | 11.0 | 0.00 | 0.00 | 0.00 | 61 | 1018.9 |
| 20260901102003 | 85 | 66 | 5.0 | 11.0 | 0.00 | 0.00 | 0.00 | 60 | 1018.9 |
| 20260901101815 | 85 | 63 | 5.0 | 11.0 | 0.00 | 0.00 | 0.00 | 59 | 1018.8 |
| 20260901101203 | 85 | 52 | 5.0 | 9.0 | 0.00 | 0.00 | 0.00 | 62 | 1018.9 |
| 20260901100803 | 84 | 46 | 6.0 | 11.0 | 0.00 | 0.00 | 0.00 | 62 | 1019.0 |
| 20260901100403 | 84 | 41 | 8.0 | 11.0 | 0.00 | 0.00 | 0.00 | 62 | 1018.9 |
| 20260901095603 | 84 | 49 | 6.0 | 11.0 | 0.00 | 0.00 | 0.00 | 62 | 1019.0 |
| 20260901095416 | 84 | 44 | 5.0 | 10.0 | 0.00 | 0.00 | 0.00 | 62 | 1018.8 |
| 20260901094803 | 84 | 31 | 5.0 | 10.0 | 0.00 | 0.00 | 0.00 | 63 | 1019.0 |
| 20260901094403 | 83 | 29 | 6.0 | 9.0 | 0.00 | 0.00 | 0.00 | 64 | 1019.0 |
| 20260901094003 | 83 | 27 | 6.0 | 10.0 | 0.00 | 0.00 | 0.00 | 65 | 1019.0 |
| 20260901093603 | 83 | 26 | 6.0 | 10.0 | 0.00 | 0.00 | 0.00 | 63 | 1019.0 |
| 20260901093203 | 82 | 28 | 6.0 | 10.0 | 0.00 | 0.00 | 0.00 | 63 | 1018.9 |
| 20260901092803 | 82 | 37 | 5.0 | 9.0 | 0.00 | 0.00 | 0.00 | 60 | 1019.2 |
| 20260901092403 | 82 | 42 | 5.0 | 8.0 | 0.00 | 0.00 | 0.00 | 61 | 1019.1 |
| 20260901092003 | 82 | 44 | 5.0 | 13.0 | 0.00 | 0.00 | 0.00 | 61 | 1019.0 |
| 20260901091603 | 82 | 42 | 5.0 | 13.0 | 0.00 | 0.00 | 0.00 | 60 | 1019.1 |
| 20260901091203 | 83 | 37 | 5.0 | 10.0 | 0.00 | 0.00 | 0.00 | 59 | 1019.2 |
| 20260901090803 | 83 | 39 | 5.0 | 10.0 | 0.00 | 0.00 | 0.00 | 58 | 1019.0 |
| 20260901090403 | 83 | 41 | 5.0 | 10.0 | 0.00 | 0.00 | 0.00 | 58 | 1018.9 |
| 20260901090003 | 82 | 45 | 5.0 | 10.0 | 0.00 | 0.00 | 0.00 | 58 | 1019.1 |
| 20260901085603 | 82 | 42 | 5.0 | 10.0 | 0.00 | 0.00 | 0.00 | 57 | 1019.0 |
| 20260901085203 | 82 | 39 | 5.0 | 9.0 | 0.00 | 0.00 | 0.00 | 58 | 1019.2 |
| 20260901085016 | 82 | 39 | 6.0 | 13.0 | 0.00 | 0.00 | 0.00 | 59 | 1019.1 |
| 20260901084616 | 82 | 39 | 6.0 | 13.0 | 0.00 | 0.00 | 0.00 | 58 | 1019.1 |
| 20260901084003 | 82 | 41 | 6.0 | 9.0 | 0.00 | 0.00 | 0.00 | 57 | 1019.0 |
| 20260901083815 | 82 | 39 | 5.0 | 8.0 | 0.00 | 0.00 | 0.00 | 58 | 1018.9 |
| 20260901083203 | 82 | 40 | 5.0 | 11.0 | 0.00 | 0.00 | 0.00 | 59 | 1019.0 |
| 20260901082803 | 81 | 50 | 6.0 | 11.0 | 0.00 | 0.00 | 0.00 | 59 | 1018.7 |
| 20260901082403 | 81 | 41 | 6.0 | 11.0 | 0.00 | 0.00 | 0.00 | 59 | 1018.9 |
| 20260901082003 | 81 | 28 | 6.0 | 9.0 | 0.00 | 0.00 | 0.00 | 60 | 1018.8 |
| 20260901081816 | 80 | 21 | 6.0 | 9.0 | 0.00 | 0.00 | 0.00 | 59 | 1018.8 |
| 20260901081416 | 80 | 24 | 6.0 | 11.0 | 0.00 | 0.00 | 0.00 | 58 | 1018.8 |
| 20260901080803 | 80 | 35 | 5.0 | 11.0 | 0.00 | 0.00 | 0.00 | 59 | 1018.6 |
| 20260901080403 | 81 | 39 | 5.0 | 10.0 | 0.00 | 0.00 | 0.00 | 58 | 1018.5 |
| 20260901080003 | 80 | 38 | 6.0 | 11.0 | 0.00 | 0.00 | 0.00 | 59 | 1018.7 |
| 20260901075813 | 80 | 38 | 6.0 | 11.0 | 0.00 | 0.00 | 0.00 | 59 | 1018.5 |
| 20260901075203 | 80 | 35 | 6.0 | 10.0 | 0.00 | 0.00 | 0.00 | 58 | 1018.5 |
| 20260901075017 | 80 | 38 | 6.0 | 10.0 | 0.00 | 0.00 | 0.00 | 59 | 1018.4 |
| 20260901074403 | 79 | 28 | 6.0 | 11.0 | 0.00 | 0.00 | 0.00 | 59 | 1018.4 |
| 20260901074003 | 79 | 28 | 6.0 | 11.0 | 0.00 | 0.00 | 0.00 | 59 | 1018.3 |
| 20260901073603 | 79 | 19 | 5.0 | 10.0 | 0.00 | 0.00 | 0.00 | 59 | 1018.2 |
| 20260901073203 | 79 | 17 | 5.0 | 9.0 | 0.00 | 0.00 | 0.00 | 58 | 1018.5 |
| 20260901073014 | 79 | 18 | 4.0 | 8.0 | 0.00 | 0.00 | 0.00 | 58 | 1018.2 |
| 20260901072403 | 79 | 21 | 4.0 | 9.0 | 0.00 | 0.00 | 0.00 | 60 | 1018.3 |
| 20260901072003 | 78 | 15 | 4.0 | 8.0 | 0.00 | 0.00 | 0.00 | 61 | 1018.0 |
| 20260901071603 | 78 | 8 | 4.0 | 8.0 | 0.00 | 0.00 | 0.00 | 59 | 1018.1 |
| 20260901071203 | 78 | 18 | 4.0 | 8.0 | 0.00 | 0.00 | 0.00 | 62 | 1018.2 |
| 20260901070803 | 77 | 19 | 4.0 | 9.0 | 0.00 | 0.00 | 0.00 | 62 | 1018.2 |
| 20260901070403 | 77 | 12 | 4.0 | 9.0 | 0.00 | 0.00 | 0.00 | 63 | 1018.1 |
| 20260901070003 | 77 | 11 | 4.0 | 7.0 | 0.00 | 0.00 | 0.00 | 64 | 1018.3 |
| 20260901065603 | 77 | 13 | 4.0 | 7.0 | 0.00 | 0.00 | 0.00 | 63 | 1018.0 |
| 20260901065203 | 76 | 15 | 3.0 | 6.0 | 0.00 | 0.00 | 0.00 | 64 | 1018.2 |
| 20260901064803 | 76 | 21 | 4.0 | 8.0 | 0.00 | 0.00 | 0.00 | 63 | 1018.1 |
| 20260901064617 | 76 | 20 | 3.0 | 8.0 | 0.00 | 0.00 | 0.00 | 64 | 1018.1 |
| 20260901064003 | 76 | 27 | 3.0 | 8.0 | 0.00 | 0.00 | 0.00 | 63 | 1017.9 |
| 20260901063816 | 75 | 19 | 3.0 | 7.0 | 0.00 | 0.00 | 0.00 | 64 | 1018.0 |
| 20260901063203 | 74 | 14 | 3.0 | 5.0 | 0.00 | 0.00 | 0.00 | 67 | 1017.9 |
| 20260901062803 | 74 | 15 | 3.0 | 6.0 | 0.00 | 0.00 | 0.00 | 66 | 1017.9 |
| 20260901062403 | 74 | 14 | 3.0 | 6.0 | 0.00 | 0.00 | 0.00 | 66 | 1017.9 |
| 20260901062003 | 74 | 19 | 3.0 | 4.0 | 0.00 | 0.00 | 0.00 | 68 | 1017.9 |
| 20260901061603 | 74 | 15 | 3.0 | 7.0 | 0.00 | 0.00 | 0.00 | 68 | 1017.8 |
| 20260901061203 | 74 | 11 | 3.0 | 7.0 | 0.00 | 0.00 | 0.00 | 67 | 1017.8 |
| 20260901060803 | 74 | 7 | 2.0 | 4.0 | 0.00 | 0.00 | 0.00 | 69 | 1017.8 |
| 20260901060403 | 74 | 11 | 2.0 | 4.0 | 0.00 | 0.00 | 0.00 | 67 | 1017.8 |
| 20260901060003 | 73 | 10 | 2.0 | 6.0 | 0.00 | 0.00 | 0.00 | 68 | 1017.9 |
| 20260901055603 | 73 | 9 | 2.0 | 6.0 | 0.00 | 0.00 | 0.00 | 69 | 1017.7 |
| 20260901055203 | 72 | 7 | 3.0 | 6.0 | 0.00 | 0.00 | 0.00 | 70 | 1017.7 |
| 20260901054803 | 72 | 5 | 2.0 | 4.0 | 0.00 | 0.00 | 0.00 | 70 | 1017.5 |
| 20260901054613 | 72 | 4 | 1.0 | 4.0 | 0.00 | 0.00 | 0.00 | 70 | 1017.5 |
| 20260901054003 | 71 | 358 | 0.0 | 2.0 | 0.00 | 0.00 | 0.00 | 72 | 1017.6 |
| 20260901053603 | 71 | 358 | 0.0 | 2.0 | 0.00 | 0.00 | 0.00 | 73 | 1017.6 |
| 20260901053203 | 71 | 357 | 0.0 | 1.0 | 0.00 | 0.00 | 0.00 | 73 | 1017.5 |
| 20260901052803 | 70 | 0 | 0.0 | 0.0 | 0.00 | 0.00 | 0.00 | 74 | 1017.5 |
| 20260901052614 | 69 | 0 | 0.0 | 0.0 | 0.00 | 0.00 | 0.00 | 75 | 1017.6 |
| 20260901052214 | 69 | 0 | 0.0 | 0.0 | 0.00 | 0.00 | 0.00 | 76 | 1017.5 |
| 20260901051603 | 69 | 359 | 0.0 | 1.0 | 0.00 | 0.00 | 0.00 | 77 | 1017.3 |
| 20260901051203 | 69 | 359 | 0.0 | 1.0 | 0.00 | 0.00 | 0.00 | 76 | 1017.2 |
| 20260901050803 | 69 | 359 | 0.0 | 1.0 | 0.00 | 0.00 | 0.00 | 75 | 1017.2 |
| 20260901050403 | 68 | 0 | 0.0 | 0.0 | 0.00 | 0.00 | 0.00 | 76 | 1017.5 |
| 20260901050003 | 68 | 0 | 0.0 | 0.0 | 0.00 | 0.00 | 0.00 | 76 | 1017.4 |
| 20260901045603 | 68 | 0 | 0.0 | 0.0 | 0.00 | 0.00 | 0.00 | 76 | 1017.3 |
| 20260901045203 | 69 | 0 | 0.0 | 0.0 | 0.00 | 0.00 | 0.00 | 76 | 1017.1 |
| 20260901044803 | 69 | 0 | 0.0 | 0.0 | 0.00 | 0.00 | 0.00 | 75 | 1017.2 |
| 20260901044403 | 69 | 0 | 0.0 | 0.0 | 0.00 | 0.00 | 0.00 | 75 | 1017.3 |
| 20260901044003 | 69 | 0 | 0.0 | 0.0 | 0.00 | 0.00 | 0.00 | 74 | 1017.2 |
| 20260901043817 | 69 | 0 | 0.0 | 0.0 | 0.00 | 0.00 | 0.00 | 74 | 1017.3 |
| 20260901043203 | 69 | 0 | 0.0 | 0.0 | 0.00 | 0.00 | 0.00 | 74 | 1016.9 |
| 20260901043016 | 69 | 0 | 0.0 | 0.0 | 0.00 | 0.00 | 0.00 | 74 | 1017.2 |
| 20260901042615 | 69 | 0 | 0.0 | 0.0 | 0.00 | 0.00 | 0.00 | 74 | 1017.0 |
| 20260901042003 | 69 | 0 | 0.0 | 0.0 | 0.00 | 0.00 | 0.00 | 74 | 1017.1 |
| 20260901041603 | 69 | 0 | 0.0 | 0.0 | 0.00 | 0.00 | 0.00 | 73 | 1017.0 |
| 20260901041203 | 69 | 0 | 0.0 | 0.0 | 0.00 | 0.00 | 0.00 | 74 | 1016.8 |
| 20260901041013 | 69 | 0 | 0.0 | 0.0 | 0.00 | 0.00 | 0.00 | 73 | 1016.9 |
| 20260901040403 | 69 | 0 | 0.0 | 0.0 | 0.00 | 0.00 | 0.00 | 73 | 1016.8 |
| 20260901040003 | 69 | 0 | 0.0 | 0.0 | 0.00 | 0.00 | 0.00 | 74 | 1016.6 |
| 20260901035603 | 70 | 0 | 0.0 | 0.0 | 0.00 | 0.00 | 0.00 | 74 | 1016.7 |
| 20260901035203 | 70 | 358 | 0.0 | 1.0 | 0.00 | 0.00 | 0.00 | 72 | 1016.6 |
| 20260901035014 | 70 | 357 | 0.0 | 1.0 | 0.00 | 0.00 | 0.00 | 72 | 1016.8 |
| 20260901034403 | 70 | 352 | 1.0 | 2.0 | 0.00 | 0.00 | 0.00 | 72 | 1016.7 |
| 20260901034003 | 70 | 355 | 1.0 | 2.0 | 0.00 | 0.00 | 0.00 | 71 | 1016.6 |
| 20260901033813 | 70 | 360 | 1.0 | 2.0 | 0.00 | 0.00 | 0.00 | 71 | 1016.6 |
| 20260901033203 | 70 | 10 | 1.0 | 2.0 | 0.00 | 0.00 | 0.00 | 72 | 1016.6 |
| 20260901032803 | 70 | 9 | 1.0 | 2.0 | 0.00 | 0.00 | 0.00 | 72 | 1016.4 |
| 20260901032403 | 70 | 5 | 0.0 | 2.0 | 0.00 | 0.00 | 0.00 | 72 | 1016.6 |
| 20260901032004 | 70 | 8 | 1.0 | 2.0 | 0.00 | 0.00 | 0.00 | 71 | 1016.5 |
| 20260901031604 | 71 | 15 | 1.0 | 2.0 | 0.00 | 0.00 | 0.00 | 71 | 1016.5 |
| 20260901031203 | 71 | 22 | 1.0 | 2.0 | 0.00 | 0.00 | 0.00 | 70 | 1016.4 |
| 20260901030803 | 71 | 28 | 1.0 | 2.0 | 0.00 | 0.00 | 0.00 | 71 | 1016.3 |
| 20260901030403 | 71 | 29 | 2.0 | 3.0 | 0.00 | 0.00 | 0.00 | 71 | 1016.3 |
| 20260901030004 | 71 | 26 | 2.0 | 3.0 | 0.00 | 0.00 | 0.00 | 71 | 1016.4 |
| 20260901025603 | 71 | 20 | 1.0 | 3.0 | 0.00 | 0.00 | 0.00 | 70 | 1016.5 |
| 20260901025203 | 71 | 13 | 1.0 | 2.0 | 0.00 | 0.00 | 0.00 | 69 | 1016.3 |
| 20260901024803 | 72 | 11 | 1.0 | 3.0 | 0.00 | 0.00 | 0.00 | 68 | 1016.4 |
| 20260901024614 | 72 | 15 | 1.0 | 3.0 | 0.00 | 0.00 | 0.00 | 68 | 1016.7 |
| 20260901024003 | 72 | 22 | 2.0 | 4.0 | 0.00 | 0.00 | 0.00 | 67 | 1016.4 |
| 20260901023603 | 72 | 28 | 2.0 | 4.0 | 0.00 | 0.00 | 0.00 | 67 | 1016.7 |
| 20260901023203 | 72 | 34 | 3.0 | 8.0 | 0.00 | 0.00 | 0.00 | 68 | 1016.4 |
| 20260901023017 | 72 | 35 | 3.0 | 8.0 | 0.00 | 0.00 | 0.00 | 69 | 1016.5 |
| 20260901022403 | 72 | 36 | 3.0 | 8.0 | 0.00 | 0.00 | 0.00 | 68 | 1016.6 |
| 20260901022003 | 72 | 34 | 3.0 | 7.0 | 0.00 | 0.00 | 0.00 | 69 | 1016.4 |
| 20260901021603 | 72 | 30 | 2.0 | 3.0 | 0.00 | 0.00 | 0.00 | 71 | 1016.3 |
| 20260901021203 | 72 | 31 | 2.0 | 3.0 | 0.00 | 0.00 | 0.00 | 71 | 1016.4 |
| 20260901020803 | 72 | 36 | 2.0 | 3.0 | 0.00 | 0.00 | 0.00 | 71 | 1016.5 |
| 20260901020403 | 72 | 37 | 2.0 | 4.0 | 0.00 | 0.00 | 0.00 | 72 | 1016.2 |
| 20260901020004 | 72 | 28 | 2.0 | 7.0 | 0.00 | 0.00 | 0.00 | 72 | 1016.3 |
| 20260901015603 | 72 | 26 | 3.0 | 7.0 | 0.00 | 0.00 | 0.00 | 70 | 1016.2 |
| 20260901015203 | 72 | 24 | 3.0 | 7.0 | 0.00 | 0.00 | 0.00 | 70 | 1016.2 |
| 20260901014803 | 72 | 28 | 3.0 | 6.0 | 0.00 | 0.00 | 0.00 | 70 | 1016.1 |
| 20260901014403 | 72 | 32 | 4.0 | 9.0 | 0.00 | 0.00 | 0.00 | 70 | 1016.1 |
| 20260901014003 | 72 | 29 | 4.0 | 9.0 | 0.00 | 0.00 | 0.00 | 72 | 1016.0 |
| 20260901013603 | 73 | 21 | 3.0 | 9.0 | 0.00 | 0.00 | 0.00 | 73 | 1016.2 |
| 20260901013203 | 73 | 17 | 3.0 | 7.0 | 0.00 | 0.00 | 0.00 | 77 | 1016.1 |
| 20260901012803 | 73 | 25 | 3.0 | 6.0 | 0.00 | 0.00 | 0.00 | 79 | 1016.3 |
| 20260901012403 | 73 | 35 | 3.0 | 6.0 | 0.00 | 0.00 | 0.00 | 78 | 1016.1 |
| 20260901012216 | 73 | 37 | 3.0 | 6.0 | 0.00 | 0.00 | 0.00 | 78 | 1016.1 |
| 20260901011603 | 73 | 43 | 3.0 | 6.0 | 0.00 | 0.00 | 0.00 | 78 | 1016.2 |
| 20260901011203 | 74 | 46 | 3.0 | 6.0 | 0.00 | 0.00 | 0.00 | 78 | 1016.2 |
| 20260901010803 | 74 | 54 | 4.0 | 11.0 | 0.00 | 0.00 | 0.00 | 79 | 1016.0 |
| 20260901010403 | 74 | 55 | 5.0 | 11.0 | 0.00 | 0.00 | 0.00 | 79 | 1016.0 |
| 20260901010003 | 74 | 47 | 4.0 | 6.0 | 0.00 | 0.00 | 0.00 | 80 | 1015.9 |
| 20260901005603 | 74 | 43 | 4.0 | 9.0 | 0.00 | 0.00 | 0.00 | 81 | 1015.8 |
| 20260901005203 | 74 | 46 | 5.0 | 9.0 | 0.00 | 0.00 | 0.00 | 83 | 1015.8 |
| 20260901005016 | 74 | 48 | 5.0 | 9.0 | 0.00 | 0.00 | 0.00 | 83 | 1015.8 |
| 20260901004403 | 74 | 48 | 5.0 | 10.0 | 0.00 | 0.00 | 0.00 | 86 | 1015.9 |
| 20260901004003 | 74 | 46 | 5.0 | 10.0 | 0.00 | 0.00 | 0.00 | 87 | 1016.0 |
| 20260901003603 | 74 | 47 | 5.0 | 10.0 | 0.00 | 0.00 | 0.00 | 89 | 1016.0 |
| 20260901003203 | 74 | 41 | 4.0 | 8.0 | 0.00 | 0.00 | 0.00 | 90 | 1015.9 |
| 20260901003013 | 73 | 38 | 3.0 | 7.0 | 0.00 | 0.00 | 0.00 | 90 | 1016.0 |
| 20260901002612 | 73 | 32 | 3.0 | 7.0 | 0.00 | 0.00 | 0.00 | 90 | 1015.8 |
| 20260901002003 | 73 | 32 | 3.0 | 6.0 | 0.00 | 0.00 | 0.00 | 90 | 1015.9 |
| 20260901001603 | 73 | 31 | 3.0 | 6.0 | 0.00 | 0.00 | 0.00 | 90 | 1015.9 |
| 20260901001203 | 73 | 25 | 2.0 | 4.0 | 0.00 | 0.00 | 0.00 | 90 | 1015.7 |
| 20260901000803 | 73 | 22 | 2.0 | 3.0 | 0.00 | 0.00 | 0.00 | 90 | 1015.7 |
| 20260901000405 | 73 | 23 | 2.0 | 3.0 | 0.00 | 0.00 | 0.00 | 90 | 1015.6 |
| 20260901000214 | 73 | 22 | 1.0 | 3.0 | 0.00 | 0.00 | 0.00 | 90 | 1015.7 |
| 20260831235603 | 72 | 12 | 2.0 | 3.0 | 0.00 | 0.00 | 0.00 | 90 | 1015.6 |
| 20260831235203 | 72 | 16 | 2.0 | 3.0 | 0.00 | 0.00 | 0.00 | 90 | 1015.5 |
| 20260831234803 | 72 | 23 | 2.0 | 4.0 | 0.00 | 0.00 | 0.00 | 91 | 1015.5 |
| 20260831234403 | 72 | 23 | 2.0 | 4.0 | 0.00 | 0.00 | 0.00 | 91 | 1015.4 |
| 20260831234216 | 72 | 23 | 1.0 | 4.0 | 0.00 | 0.00 | 0.00 | 91 | 1015.3 |
| 20260831233603 | 71 | 18 | 1.0 | 2.0 | 0.00 | 0.00 | 0.00 | 91 | 1015.4 |
| 20260831233203 | 71 | 27 | 1.0 | 2.0 | 0.00 | 0.00 | 0.00 | 91 | 1015.1 |
| 20260831232803 | 71 | 38 | 1.0 | 2.0 | 0.00 | 0.00 | 0.00 | 91 | 1015.0 |
| 20260831232613 | 71 | 39 | 0.0 | 2.0 | 0.00 | 0.00 | 0.00 | 91 | 1015.2 |
| 20260831232213 | 71 | 44 | 0.0 | 1.0 | 0.00 | 0.00 | 0.00 | 91 | 1014.9 |
| 20260831231603 | 71 | 44 | 0.0 | 1.0 | 0.00 | 0.00 | 0.00 | 90 | 1014.8 |
| 20260831231203 | 71 | 44 | 0.0 | 1.0 | 0.00 | 0.00 | 0.00 | 90 | 1015.0 |
| 20260831230803 | 71 | 44 | 0.0 | 1.0 | 0.00 | 0.00 | 0.00 | 90 | 1014.8 |
| 20260831230403 | 71 | 0 | 0.0 | 0.0 | 0.00 | 0.00 | 0.00 | 91 | 1014.8 |
| 20260831230003 | 71 | 0 | 0.0 | 0.0 | 0.00 | 0.00 | 0.00 | 90 | 1014.8 |
| 20260831225603 | 71 | 0 | 0.0 | 0.0 | 0.00 | 0.00 | 0.00 | 90 | 1014.8 |
| 20260831225203 | 71 | 0 | 0.0 | 0.0 | 0.00 | 0.00 | 0.00 | 91 | 1014.6 |
| 20260831224803 | 71 | 0 | 0.0 | 0.0 | 0.00 | 0.00 | 0.00 | 90 | 1014.6 |
| 20260831224617 | 71 | 44 | 0.0 | 0.0 | 0.00 | 0.00 | 0.00 | 90 | 1014.6 |
| 20260831224003 | 71 | 44 | 0.0 | 1.0 | 0.00 | 0.00 | 0.00 | 90 | 1014.4 |
| 20260831223603 | 71 | 44 | 0.0 | 1.0 | 0.00 | 0.00 | 0.00 | 89 | 1014.4 |
| 20260831223415 | 71 | 0 | 0.0 | 0.0 | 0.00 | 0.00 | 0.00 | 90 | 1014.5 |
| 20260831223014 | 71 | 0 | 0.0 | 0.0 | 0.00 | 0.00 | 0.00 | 89 | 1014.2 |
| 20260831222403 | 72 | 44 | 0.0 | 0.0 | 0.00 | 0.00 | 0.00 | 89 | 1014.1 |
| 20260831222003 | 72 | 44 | 0.0 | 2.0 | 0.00 | 0.00 | 0.00 | 88 | 1014.2 |
| 20260831221603 | 72 | 44 | 0.0 | 2.0 | 0.00 | 0.00 | 0.00 | 88 | 1014.2 |
| 20260831221203 | 72 | 44 | 0.0 | 2.0 | 0.00 | 0.00 | 0.00 | 88 | 1014.3 |
| 20260831220803 | 72 | 45 | 0.0 | 1.0 | 0.00 | 0.00 | 0.00 | 88 | 1014.3 |
| 20260831220403 | 72 | 45 | 0.0 | 1.0 | 0.00 | 0.00 | 0.00 | 88 | 1014.2 |
| 20260831220215 | 72 | 45 | 0.0 | 1.0 | 0.00 | 0.00 | 0.00 | 88 | 1014.2 |
| 20260831215603 | 72 | 0 | 0.0 | 0.0 | 0.00 | 0.00 | 0.00 | 87 | 1014.2 |
| 20260831215203 | 73 | 45 | 0.0 | 0.0 | 0.00 | 0.00 | 0.00 | 87 | 1014.3 |
| 20260831214803 | 73 | 45 | 0.0 | 0.0 | 0.00 | 0.00 | 0.00 | 86 | 1014.3 |
| 20260831214613 | 73 | 45 | 0.0 | 0.0 | 0.00 | 0.00 | 0.00 | 86 | 1014.3 |
| 20260831214003 | 73 | 45 | 0.0 | 1.0 | 0.00 | 0.00 | 0.00 | 86 | 1014.2 |
| 20260831213603 | 73 | 45 | 0.0 | 1.0 | 0.00 | 0.00 | 0.00 | 86 | 1014.1 |
| 20260831213203 | 73 | 0 | 0.0 | 0.0 | 0.00 | 0.00 | 0.00 | 86 | 1014.3 |
| 20260831212803 | 73 | 45 | 0.0 | 0.0 | 0.00 | 0.00 | 0.00 | 85 | 1014.2 |
| 20260831212403 | 73 | 45 | 0.0 | 1.0 | 0.00 | 0.00 | 0.00 | 85 | 1014.1 |
| 20260831212003 | 74 | 45 | 0.0 | 1.0 | 0.00 | 0.00 | 0.00 | 85 | 1014.1 |
| 20260831211603 | 73 | 0 | 0.0 | 0.0 | 0.00 | 0.00 | 0.00 | 85 | 1014.1 |
| 20260831211203 | 74 | 0 | 0.0 | 0.0 | 0.00 | 0.00 | 0.00 | 84 | 1013.9 |
| 20260831211017 | 74 | 45 | 0.0 | 1.0 | 0.00 | 0.00 | 0.00 | 84 | 1013.9 |
| 20260831210616 | 74 | 45 | 1.0 | 2.0 | 0.00 | 0.00 | 0.00 | 84 | 1013.9 |
| 20260831210004 | 74 | 45 | 2.0 | 2.0 | 0.00 | 0.00 | 0.00 | 84 | 1014.0 |
| 20260831205815 | 73 | 45 | 2.0 | 2.0 | 0.00 | 0.00 | 0.00 | 85 | 1013.8 |
| 20260831205203 | 72 | 67 | 1.0 | 2.0 | 0.00 | 0.00 | 0.00 | 87 | 1013.9 |
| 20260831204803 | 73 | 89 | 1.0 | 2.0 | 0.00 | 0.00 | 0.00 | 86 | 1013.7 |
| 20260831204613 | 74 | 115 | 0.0 | 2.0 | 0.00 | 0.00 | 0.00 | 85 | 1013.9 |
| 20260831204213 | 74 | 0 | 0.0 | 0.0 | 0.00 | 0.00 | 0.00 | 83 | 1013.8 |
| 20260831203817 | 74 | 0 | 0.0 | 0.0 | 0.00 | 0.00 | 0.00 | 82 | 1013.8 |
| 20260831203203 | 75 | 0 | 0.0 | 0.0 | 0.00 | 0.00 | 0.00 | 80 | 1013.7 |
| 20260831202803 | 75 | 140 | 0.0 | 1.0 | 0.00 | 0.00 | 0.00 | 80 | 1013.7 |
| 20260831202403 | 75 | 140 | 0.0 | 1.0 | 0.00 | 0.00 | 0.00 | 80 | 1013.5 |
| 20260831202003 | 75 | 140 | 0.0 | 1.0 | 0.00 | 0.00 | 0.00 | 80 | 1013.5 |
| 20260831201814 | 75 | 0 | 0.0 | 0.0 | 0.00 | 0.00 | 0.00 | 81 | 1013.5 |
| 20260831201203 | 75 | 0 | 0.0 | 0.0 | 0.00 | 0.00 | 0.00 | 80 | 1013.5 |
| 20260831200803 | 75 | 0 | 0.0 | 0.0 | 0.00 | 0.00 | 0.00 | 80 | 1013.5 |
| 20260831200403 | 76 | 0 | 0.0 | 0.0 | 0.00 | 0.00 | 0.00 | 79 | 1013.6 |
| 20260831200003 | 76 | 0 | 0.0 | 0.0 | 0.00 | 0.00 | 0.00 | 79 | 1013.4 |
| 20260831195603 | 76 | 0 | 0.0 | 0.0 | 0.00 | 0.00 | 0.00 | 78 | 1013.5 |
| 20260831195203 | 76 | 146 | 0.0 | 1.0 | 0.00 | 0.00 | 0.00 | 78 | 1013.5 |
| 20260831194803 | 76 | 166 | 1.0 | 3.0 | 0.00 | 0.00 | 0.00 | 77 | 1013.5 |
| 20260831194403 | 77 | 162 | 1.0 | 4.0 | 0.00 | 0.00 | 0.00 | 77 | 1013.4 |
| 20260831194003 | 77 | 166 | 2.0 | 4.0 | 0.00 | 0.00 | 0.00 | 76 | 1013.4 |
| 20260831193603 | 77 | 163 | 2.0 | 4.0 | 0.00 | 0.00 | 0.00 | 76 | 1013.4 |
| 20260831193203 | 77 | 158 | 1.0 | 4.0 | 0.00 | 0.00 | 0.00 | 76 | 1013.2 |
| 20260831192803 | 77 | 155 | 2.0 | 4.0 | 0.00 | 0.00 | 0.00 | 76 | 1013.4 |
| 20260831192616 | 77 | 154 | 1.0 | 2.0 | 0.00 | 0.00 | 0.00 | 76 | 1013.3 |
| 20260831192003 | 77 | 158 | 2.0 | 3.0 | 0.00 | 0.00 | 0.00 | 75 | 1013.3 |
| 20260831191603 | 77 | 156 | 2.0 | 3.0 | 0.00 | 0.00 | 0.00 | 75 | 1013.3 |
| 20260831191414 | 78 | 156 | 2.0 | 3.0 | 0.00 | 0.00 | 0.00 | 75 | 1013.2 |
| 20260831190803 | 78 | 162 | 2.0 | 4.0 | 0.00 | 0.00 | 0.00 | 74 | 1013.1 |
| 20260831190403 | 78 | 168 | 2.0 | 4.0 | 0.00 | 0.00 | 0.00 | 74 | 1013.0 |
| 20260831190003 | 78 | 170 | 2.0 | 4.0 | 0.00 | 0.00 | 0.00 | 74 | 1013.2 |
| 20260831185603 | 78 | 168 | 2.0 | 4.0 | 0.00 | 0.00 | 0.00 | 73 | 1013.1 |
| 20260831185203 | 78 | 165 | 2.0 | 4.0 | 0.00 | 0.00 | 0.00 | 73 | 1012.8 |
| 20260831184803 | 78 | 160 | 1.0 | 4.0 | 0.00 | 0.00 | 0.00 | 73 | 1013.0 |
| 20260831184403 | 78 | 155 | 1.0 | 3.0 | 0.00 | 0.00 | 0.00 | 74 | 1013.1 |
| 20260831184003 | 78 | 154 | 1.0 | 3.0 | 0.00 | 0.00 | 0.00 | 73 | 1013.1 |
| 20260831183603 | 79 | 160 | 1.0 | 3.0 | 0.00 | 0.00 | 0.00 | 73 | 1012.8 |
| 20260831183203 | 79 | 155 | 1.0 | 3.0 | 0.00 | 0.00 | 0.00 | 72 | 1012.9 |
| 20260831182803 | 79 | 145 | 0.0 | 2.0 | 0.00 | 0.00 | 0.00 | 72 | 1012.9 |
| 20260831182403 | 80 | 144 | 0.0 | 2.0 | 0.00 | 0.00 | 0.00 | 71 | 1012.7 |
| 20260831182003 | 80 | 153 | 1.0 | 2.0 | 0.00 | 0.00 | 0.00 | 71 | 1012.7 |
| 20260831181815 | 80 | 157 | 1.0 | 4.0 | 0.00 | 0.00 | 0.00 | 70 | 1012.7 |
| 20260831181203 | 80 | 163 | 1.0 | 4.0 | 0.00 | 0.00 | 0.00 | 70 | 1012.8 |
| 20260831180803 | 80 | 159 | 0.0 | 2.0 | 0.00 | 0.00 | 0.00 | 71 | 1012.6 |
| 20260831180613 | 80 | 138 | 0.0 | 1.0 | 0.00 | 0.00 | 0.00 | 71 | 1012.6 |
| 20260831180003 | 80 | 138 | 0.0 | 1.0 | 0.00 | 0.00 | 0.00 | 70 | 1012.6 |
| 20260831175817 | 81 | 138 | 0.0 | 1.0 | 0.00 | 0.00 | 0.00 | 70 | 1012.7 |
| 20260831175203 | 81 | 138 | 0.0 | 1.0 | 0.00 | 0.00 | 0.00 | 69 | 1012.6 |
| 20260831174803 | 82 | 163 | 0.0 | 2.0 | 0.00 | 0.00 | 0.00 | 67 | 1012.6 |
| 20260831174403 | 83 | 163 | 0.0 | 2.0 | 0.00 | 0.00 | 0.00 | 65 | 1012.7 |
| 20260831174003 | 83 | 149 | 0.0 | 2.0 | 0.00 | 0.00 | 0.00 | 64 | 1012.8 |
| 20260831173603 | 84 | 118 | 0.0 | 3.0 | 0.00 | 0.00 | 0.00 | 63 | 1012.6 |
| 20260831173203 | 84 | 105 | 1.0 | 3.0 | 0.00 | 0.00 | 0.00 | 63 | 1012.7 |
| 20260831172803 | 85 | 88 | 0.0 | 3.0 | 0.00 | 0.00 | 0.00 | 62 | 1012.5 |
| 20260831172403 | 85 | 115 | 0.0 | 2.0 | 0.00 | 0.00 | 0.00 | 61 | 1012.6 |
| 20260831172003 | 86 | 174 | 0.0 | 2.0 | 0.00 | 0.00 | 0.00 | 60 | 1012.6 |
| 20260831171603 | 86 | 110 | 0.0 | 2.0 | 0.00 | 0.00 | 0.00 | 60 | 1012.9 |
| 20260831171203 | 87 | 141 | 1.0 | 4.0 | 0.00 | 0.00 | 0.00 | 58 | 1012.6 |
| 20260831170803 | 88 | 135 | 1.0 | 4.0 | 0.00 | 0.00 | 0.00 | 56 | 1012.8 |
| 20260831170403 | 89 | 153 | 1.0 | 2.0 | 0.00 | 0.00 | 0.00 | 49 | 1012.7 |
| 20260831170003 | 90 | 206 | 1.0 | 2.0 | 0.00 | 0.00 | 0.00 | 48 | 1012.9 |
| 20260831165813 | 90 | 212 | 1.0 | 2.0 | 0.00 | 0.00 | 0.00 | 48 | 1012.7 |
| 20260831165203 | 90 | 213 | 1.0 | 3.0 | 0.00 | 0.00 | 0.00 | 47 | 1012.7 |
| 20260831165016 | 90 | 202 | 1.0 | 3.0 | 0.00 | 0.00 | 0.00 | 46 | 1012.7 |
| 20260831164403 | 90 | 208 | 2.0 | 4.0 | 0.00 | 0.00 | 0.00 | 46 | 1012.7 |
| 20260831164003 | 90 | 221 | 2.0 | 6.0 | 0.00 | 0.00 | 0.00 | 45 | 1012.8 |
| 20260831163603 | 90 | 222 | 3.0 | 6.0 | 0.00 | 0.00 | 0.00 | 46 | 1012.8 |
| 20260831163203 | 90 | 213 | 2.0 | 6.0 | 0.00 | 0.00 | 0.00 | 45 | 1012.6 |
| 20260831162803 | 91 | 213 | 2.0 | 4.0 | 0.00 | 0.00 | 0.00 | 44 | 1012.9 |
| 20260831162403 | 91 | 216 | 2.0 | 4.0 | 0.00 | 0.00 | 0.00 | 44 | 1012.9 |
| 20260831162003 | 91 | 224 | 2.0 | 4.0 | 0.00 | 0.00 | 0.00 | 46 | 1013.1 |
| 20260831161817 | 91 | 225 | 2.0 | 4.0 | 0.00 | 0.00 | 0.00 | 44 | 1012.9 |
| 20260831161203 | 91 | 222 | 3.0 | 7.0 | 0.00 | 0.00 | 0.00 | 45 | 1013.2 |
| 20260831160803 | 91 | 220 | 3.0 | 7.0 | 0.00 | 0.00 | 0.00 | 44 | 1013.0 |
| 20260831160403 | 91 | 225 | 2.0 | 6.0 | 0.00 | 0.00 | 0.00 | 45 | 1013.0 |
| 20260831160003 | 92 | 246 | 2.0 | 4.0 | 0.00 | 0.00 | 0.00 | 44 | 1013.0 |
| 20260831155603 | 92 | 244 | 2.0 | 4.0 | 0.00 | 0.00 | 0.00 | 43 | 1013.0 |
| 20260831155203 | 92 | 236 | 2.0 | 4.0 | 0.00 | 0.00 | 0.00 | 43 | 1013.2 |